Location: Glens Falls
(43.3090°N, 73.6440°W)
Time: 08:09:54
(UTC-04:00)

Cosmos 1908 Rocket - Pass Details

Date: 24 February 2018
Orbit: 606 x 633 km, 82.5° (Epoch: 24 June)

Event Time Altitude Azimuth Distance (km) Brightness Sun altitude
Rises 18:24:11 0° 184° (S) 2,912 7.1 -9.3°
Reaches altitude 10° 18:26:25 10° 183° (S) 2,009 6.3 -9.7°
Maximum altitude 18:30:52 80° 97° (E) 646 3.5 -10.5°
Drops below altitude 10° 18:35:21 10° 11° (N) 2,016 6.1 -11.3°
Sets 18:37:35 0° 10° (N) 2,924 6.9 -11.7°
